Location: Bambrugge
(50.9212°N, 3.9299°E)
Time: 20:30:04
(UTC+00:00)

SL-16 R/B - Pass Details

Date: 12 August 2024
Orbit: 842 x 845 km, 71.0° (Epoch: 10 September)

Event Time Altitude Azimuth Distance (km) Brightness Sun altitude
Exits shadow 22:32:01 27° 100° (E) 1,585 3.3 -22.3°
Drops below altitude 10° 22:36:28 10° 49° (NE) 2,474 4.9 -22.6°
Sets 22:39:16 0° 37° (NE) 3,415 5.8 -22.7°
